• In Czech Republic
  • List of Countries
  • For 7 days
  • Water Temperature
  • Satellite Maps
  • Weather Map
  • Weather Widgets
  • user-avatar
    Login

    Hourly Weather Scandicci

    Today, 18 July, Wednesday

    Time Temperature Precipitation Wind Pressure Humidity
    00:00 +23°C° 0 mm 1 mps 756 mmHg 80%
    01:00 +23°C° 0 mm 1 mps 756 mmHg 82%
    02:00 +23°C° 0 mm 1 mps 756 mmHg 82%
    03:00 +22°C° 0 mm 1 mps 756 mmHg 82%
    04:00 +22°C° 0 mm 1 mps 756 mmHg 82%
    05:00 +23°C° 0 mm 1 mps 756 mmHg 78%
    06:00 +25°C° 0 mm 1 mps 757 mmHg 74%
    07:00 +24°C° 0 mm 0 mps 757 mmHg 70%
    08:00 +28°C° 0 mm 1 mps 757 mmHg 61%
    09:00 +30°C° 0 mm 1 mps 757 mmHg 52%
    10:00 +32°C° 0 mm 1 mps 757 mmHg 44%
    11:00 +34°C° 0 mm 2 mps 757 mmHg 40%
    12:00 +35°C° 0 mm 2 mps 757 mmHg 37%
    13:00 +36°C° 0 mm 2 mps 757 mmHg 34%
    14:00 +36°C° 0 mm 3 mps 757 mmHg 35%
    15:00 +35°C° 0 mm 3 mps 756 mmHg 36%
    16:00 +35°C° 0 mm 3 mps 756 mmHg 37%
    17:00 +33°C° 0 mm 3 mps 756 mmHg 42%
    18:00 +31°C° 0 mm 2 mps 756 mmHg 47%
    19:00 +29°C° 0 mm 2 mps 756 mmHg 53%
    20:00 +27°C° 0 mm 2 mps 756 mmHg 56%
    21:00 +26°C° 0 mm 1 mps 756 mmHg 59%
    22:00 +24°C° 0 mm 1 mps 756 mmHg 62%
    23:00 +23°C° 0 mm 1 mps 756 mmHg 62%

    Tomorrow, 19 July, Thursday

    Time Temperature Precipitation Wind Pressure Humidity
    00:00 +23°C° 0 mm 1 mps 756 mmHg 62%
    01:00 +23°C° 0 mm 1 mps 756 mmHg 62%
    02:00 +22°C° 0 mm 1 mps 756 mmHg 63%
    03:00 +22°C° 0 mm 1 mps 756 mmHg 63%
    04:00 +22°C° 0 mm 1 mps 756 mmHg 63%
    05:00 +23°C° 0 mm 1 mps 756 mmHg 61%
    06:00 +24°C° 0 mm 1 mps 756 mmHg 59%
    07:00 +26°C° 0 mm 1 mps 756 mmHg 57%
    08:00 +28°C° 0 mm 1 mps 757 mmHg 51%
    09:00 +30°C° 0 mm 1 mps 757 mmHg 45%
    10:00 +32°C° 0 mm 1 mps 757 mmHg 38%
    11:00 +34°C° 0 mm 2 mps 757 mmHg 36%
    12:00 +35°C° 0 mm 2 mps 757 mmHg 34%
    13:00 +36°C° 0 mm 2 mps 757 mmHg 32%
    14:00 +36°C° 0 mm 3 mps 756 mmHg 33%
    15:00 +35°C° 0 mm 3 mps 756 mmHg 34%
    16:00 +35°C° 0 mm 3 mps 756 mmHg 35%
    17:00 +33°C° 0 mm 3 mps 756 mmHg 43%
    18:00 +31°C° 0 mm 2 mps 756 mmHg 50%
    19:00 +29°C° 0 mm 2 mps 756 mmHg 58%
    20:00 +27°C° 0 mm 2 mps 756 mmHg 64%
    21:00 +26°C° 0 mm 1 mps 756 mmHg 71%
    22:00 +24°C° 0 mm 1 mps 756 mmHg 77%
    23:00 +24°C° 0 mm 1 mps 756 mmHg 80%

    Day after tomorrow, 20 July, Friday

    Time Temperature Precipitation Wind Pressure Humidity
    00:00 +23°C° 0 mm 1 mps 756 mmHg 82%
    01:00 +23°C° 0 mm 1 mps 757 mmHg 85%
    02:00 +23°C° 0 mm 1 mps 756 mmHg 86%
    03:00 +22°C° 0 mm 1 mps 756 mmHg 87%
    04:00 +22°C° 0 mm 1 mps 756 mmHg 88%
    05:00 +21°C° 0 mm 0 mps 756 mmHg 84%
    06:00 +23°C° 0 mm 0 mps 757 mmHg 80%
    07:00 +24°C° 0 mm 0 mps 757 mmHg 76%
    08:00 +28°C° 0 mm 1 mps 757 mmHg 67%
    09:00 +30°C° 0 mm 1 mps 757 mmHg 59%
    10:00 +32°C° 0 mm 2 mps 757 mmHg 50%
    11:00 +34°C° 0 mm 2 mps 757 mmHg 47%
    12:00 +35°C° 0 mm 3 mps 757 mmHg 44%
    13:00 +36°C° 0 mm 3 mps 756 mmHg 41%
    14:00 +36°C° 0 mm 3 mps 756 mmHg 40%
    15:00 +35°C° 0 mm 4 mps 756 mmHg 40%
    16:00 +35°C° 0 mm 4 mps 755 mmHg 40%
    17:00 +33°C° 0 mm 3 mps 755 mmHg 46%
    18:00 +31°C° 0 mm 3 mps 755 mmHg 52%
    19:00 +29°C° 0 mm 2 mps 755 mmHg 58%
    20:00 +27°C° 0 mm 2 mps 755 mmHg 64%
    21:00 +26°C° 0 mm 2 mps 755 mmHg 70%
    22:00 +24°C° 0 mm 1 mps 755 mmHg 76%
    23:00 +24°C° 0 mm 1 mps 755 mmHg 77%

    21 July, Saturday

    Time Temperature Precipitation Wind Pressure Humidity
    00:00 +23°C° 0 mm 1 mps 755 mmHg 77%
    01:00 +23°C° 0 mm 1 mps 755 mmHg 78%
    02:00 +23°C° 0 mm 1 mps 754 mmHg 78%
    03:00 +22°C° 0 mm 1 mps 754 mmHg 79%
    04:00 +22°C° 0 mm 1 mps 754 mmHg 79%
    05:00 +23°C° 0 mm 2 mps 754 mmHg 75%
    06:00 +24°C° 0 mm 2 mps 754 mmHg 70%
    07:00 +26°C° 0 mm 2 mps 754 mmHg 65%
    08:00 +27°C° 0 mm 2 mps 754 mmHg 60%
    09:00 +29°C° 0 mm 2 mps 754 mmHg 54%
    10:00 +31°C° 0 mm 3 mps 754 mmHg 49%
    11:00 +33°C° 0 mm 3 mps 754 mmHg 45%
    12:00 +34°C° 0 mm 4 mps 754 mmHg 41%
    13:00 +35°C° 0 mm 4 mps 753 mmHg 37%
    14:00 +35°C° 0 mm 4 mps 753 mmHg 38%
    15:00 +35°C° 0 mm 5 mps 753 mmHg 38%
    16:00 +35°C° 0 mm 5 mps 753 mmHg 39%
    17:00 +33°C° 0 mm 4 mps 753 mmHg 45%
    18:00 +30°C° 0 mm 3 mps 753 mmHg 51%
    19:00 +29°C° 0 mm 3 mps 752 mmHg 58%
    20:00 +27°C° 0 mm 2 mps 753 mmHg 64%
    21:00 +25°C° 0 mm 1 mps 753 mmHg 70%
    22:00 +24°C° 0 mm 1 mps 753 mmHg 76%
    23:00 +23°C° 0 mm 1 mps 753 mmHg 78%

    22 July, Sunday

    Time Temperature Precipitation Wind Pressure Humidity
    00:00 +23°C° 0 mm 1 mps 752 mmHg 79%
    01:00 +22°C° 0 mm 1 mps 752 mmHg 81%
    02:00 +22°C° 0 mm 1 mps 752 mmHg 82%
    03:00 +22°C° 0 mm 1 mps 751 mmHg 83%
    04:00 +22°C° 0 mm 1 mps 751 mmHg 83%
    05:00 +23°C° 0.1 mm 1 mps 751 mmHg 79%
    06:00 +24°C° 0.1 mm 1 mps 751 mmHg 74%
    07:00 +25°C° 0.1 mm 1 mps 751 mmHg 69%
    08:00 +27°C° 0.2 mm 1 mps 751 mmHg 62%
    09:00 +29°C° 0.2 mm 1 mps 751 mmHg 55%
    10:00 +31°C° 0.2 mm 1 mps 751 mmHg 48%
    11:00 +31°C° 0.6 mm 2 mps 751 mmHg 50%
    12:00 +31°C° 0.6 mm 2 mps 751 mmHg 51%
    13:00 +30°C° 0.6 mm 3 mps 750 mmHg 52%
    14:00 +31°C° 0.2 mm 3 mps 750 mmHg 51%
    15:00 +31°C° 0.2 mm 3 mps 750 mmHg 49%
    16:00 +31°C° 0.2 mm 3 mps 750 mmHg 48%
    17:00 +30°C° 0.1 mm 2 mps 750 mmHg 53%
    18:00 +29°C° 0.1 mm 2 mps 751 mmHg 58%
    19:00 +28°C° 0.1 mm 2 mps 751 mmHg 63%
    20:00 +26°C° 0.3 mm 2 mps 751 mmHg 69%
    21:00 +25°C° 0.3 mm 1 mps 752 mmHg 74%
    22:00 +23°C° 0.3 mm 1 mps 752 mmHg 80%
    23:00 +23°C° 0.1 mm 1 mps 752 mmHg 81%

    23 July, Monday

    Time Temperature Precipitation Wind Pressure Humidity
    00:00 +23°C° 0.1 mm 1 mps 752 mmHg 82%
    01:00 +22°C° 0.1 mm 1 mps 752 mmHg 82%
    02:00 +22°C° 0 mm 1 mps 752 mmHg 82%
    03:00 +22°C° 0 mm 1 mps 752 mmHg 82%
    04:00 +22°C° 0 mm 1 mps 753 mmHg 81%
    05:00 +23°C° 0 mm 1 mps 753 mmHg 77%
    06:00 +24°C° 0 mm 1 mps 753 mmHg 73%
    07:00 +26°C° 0 mm 1 mps 753 mmHg 68%
    08:00 +28°C° 0 mm 1 mps 753 mmHg 60%
    09:00 +30°C° 0 mm 2 mps 753 mmHg 52%
    10:00 +32°C° 0 mm 2 mps 754 mmHg 43%
    11:00 +34°C° 0 mm 2 mps 754 mmHg 41%
    12:00 +34°C° 0 mm 2 mps 753 mmHg 38%
    13:00 +35°C° 0 mm 3 mps 753 mmHg 36%
    14:00 +35°C° 0 mm 3 mps 753 mmHg 37%
    15:00 +34°C° 0 mm 3 mps 753 mmHg 38%
    16:00 +34°C° 0 mm 3 mps 753 mmHg 40%
    17:00 +33°C° 0 mm 3 mps 753 mmHg 44%
    18:00 +30°C° 0 mm 2 mps 753 mmHg 48%
    19:00 +29°C° 0 mm 2 mps 753 mmHg 53%
    20:00 +28°C° 0 mm 2 mps 754 mmHg 55%
    21:00 +26°C° 0 mm 1 mps 754 mmHg 58%
    22:00 +24°C° 0 mm 1 mps 755 mmHg 61%
    23:00 +24°C° 0 mm 1 mps 755 mmHg 62%
    Show more